This demonstration page uses our WeatherBlox Daily Observations layout. Learn more.

Left ArrowRight Arrow

40.97296, -117.73568

Hourly Observations for August 18, 2022

Temp ( °F °C ) Dew Point ( °F °C ) Humidity (%) Winds ( mph kmh ) Pressure ( in mb ) Visibility ( mi km ) Precip ( " mm )
12:56 am 00:56 Clear 80 26.7 44 6.7 28 28 SW 6 9 29.88 1012 10 16 0.00 0.00
1:56 am 01:56 Clear 78 25.6 48 8.9 35 35 SW 8 13 29.93 1014 10 16 0.00 0.00
2:40 am 02:40 Clear 76 24.4 52 11.1 43 43 SSE 13 20 29.87 1011 10 16 0.00 0.00
2:56 am 02:56 Clear 76 24.4 51 10.6 42 42 SE 12 19 29.96 1015 10 16 0.00 0.00
3:56 am 03:56 Clear 74 23.3 53 11.7 48 48 SSE 13 20 29.96 1015 10 16 0.00 0.00
4:56 am 04:56 Partly Cloudy with Light Rain 70 21.1 55 12.8 59 59 W 23 37 29.98 1015 10 16 0.01 0.13
5:56 am 05:56 Cloudy 71 21.7 55 12.8 57 57 S 15 24 30.01 1016 10 16 0.01 0.13
6:56 am 06:56 Mostly Cloudy with Light Rain 66 18.9 59 15 78 78 SSE 6 9 30.03 1017 10 16 0.01 0.13
7:56 am 07:56 Cloudy 68 20 58 14.4 70 70 S 9 15 30.04 1017 10 16 0.01 0.13
8:56 am 08:56 Mostly Sunny 70 21.1 58 14.4 66 66 WSW 10 17 30.03 1017 10 16 0.00 0.00
9:56 am 09:56 Mostly Cloudy 70 21.1 59 15 68 68 NW 3 6 30.03 1017 10 16 0.01 0.13
10:56 am 10:56 Mostly Cloudy 76 24.4 55 12.8 48 48 Calm 30.02 1017 10 16 0.01 0.13
11:56 am 11:56 Mostly Cloudy 82 27.8 52 11.1 35 35 NNE 8 13 29.99 1016 10 16 0.00 0.00
12:56 pm 12:56 Mostly Sunny 84 28.9 50 10 31 31 VRB 5 7 29.97 1015 10 16 0.00 0.00
1:56 pm 13:56 Sunny 88 31.1 50 10 27 27 SE 9 15 29.94 1014 10 16 0.00 0.00
2:56 pm 14:56 Sunny 87 30.6 50 10 28 28 SSW 8 13 29.91 1013 10 16 0.00 0.00
3:56 pm 15:56 Sunny 90 32.2 49 9.4 25 25 N 5 7 29.88 1012 10 16 0.00 0.00
4:56 pm 16:56 Mostly Sunny 90 32.2 47 8.3 23 23 VRB 6 9 29.87 1012 10 16 0.00 0.00
5:56 pm 17:56 Mostly Sunny 87 30.6 48 8.9 26 26 WSW 20 31 29.87 1012 10 16 0.00 0.00
6:18 pm 18:18 Partly Cloudy with Nearby Thunderstorms 79 26.1 52 11.1 39 39 W 28 44 29.76 1008 3 4 0.00 0.00
6:25 pm 18:25 Sunny with Nearby Thunderstorms 77 25 55 12.8 47 47 W 20 31 29.78 1008 6 10 0.00 0.00
6:56 pm 18:56 Partly Cloudy with Nearby Thunderstorms 78 25.6 51 10.6 39 39 WSW 17 28 29.93 1014 10 16 0.00 0.00
7:19 pm 19:19 Mostly Sunny 79 26.1 51 10.6 38 38 SW 9 15 29.77 1008 10 16 0.00 0.00
7:56 pm 19:56 Mostly Clear 76 24.4 52 11.1 43 43 WNW 6 9 29.96 1014 10 16 0.00 0.00
8:56 pm 20:56 Clear 73 22.8 52 11.1 48 48 NW 3 6 29.97 1015 10 16 0.00 0.00
9:56 pm 21:56 Clear 66 18.9 51 10.6 59 59 Calm 29.99 1016 10 16 0.00 0.00
10:56 pm 22:56 Clear 70 21.1 51 10.6 51 51 NE 12 19 29.96 1015 10 16 0.00 0.00
11:56 pm 23:56 Clear 67 19.4 50 10 55 55 WNW 7 11 29.96 1015 10 16 0.00 0.00

Powered by AerisWeather